| time (UTC) | temp F | wind direction | speed knots | gust knots | rain 1hr in | rain 24hr in | rain mn in | humidity % | barometer mb |
| 20260503213406 | 56 | 73 | 1.7 | 7.0 | 0.00 | 0.00 | 0.00 | 40 | 1012.2 |
| 20260503212903 | 56 | 273 | 1.7 | 3.5 | 0.00 | 0.00 | 0.00 | 39 | 1011.9 |
| 20260503212401 | 56 | 298 | 5.2 | 7.8 | 0.00 | 0.00 | 0.00 | 39 | 1012.1 |
| 20260503211857 | 56 | 274 | 5.2 | 7.8 | 0.00 | 0.00 | 0.00 | 38 | 1011.9 |
| 20260503211354 | 57 | 251 | 1.7 | 6.1 | 0.00 | 0.00 | 0.00 | 39 | 1012.0 |
| 20260503210849 | 57 | 264 | 7.8 | 9.6 | 0.00 | 0.00 | 0.00 | 37 | 1011.9 |
| 20260503210347 | 56 | 193 | 4.3 | 12.2 | 0.00 | 0.00 | 0.00 | 39 | 1012.0 |
| 20260503205842 | 56 | 238 | 2.6 | 6.1 | 0.00 | 0.00 | 0.00 | 38 | 1011.9 |
| 20260503205339 | 57 | 275 | 5.2 | 7.8 | 0.00 | 0.00 | 0.00 | 38 | 1012.0 |
| 20260503204835 | 59 | 221 | 4.3 | 8.7 | 0.00 | 0.00 | 0.00 | 38 | 1012.0 |
| 20260503204332 | 57 | 212 | 1.7 | 5.2 | 0.00 | 0.00 | 0.00 | 39 | 1012.0 |
| 20260503203829 | 59 | 214 | 3.5 | 6.1 | 0.00 | 0.00 | 0.00 | 38 | 1012.0 |
| 20260503203327 | 58 | 78 | 0.9 | 8.7 | 0.00 | 0.00 | 0.00 | 39 | 1012.3 |
| 20260503202824 | 56 | 159 | 0.9 | 5.2 | 0.00 | 0.00 | 0.00 | 41 | 1012.2 |
| 20260503202322 | 56 | 216 | 4.3 | 8.7 | 0.00 | 0.00 | 0.00 | 39 | 1012.3 |
| 20260503201820 | 58 | 250 | 5.2 | 7.0 | 0.00 | 0.00 | 0.00 | 38 | 1012.6 |
| 20260503201316 | 57 | 258 | 6.1 | 7.8 | 0.00 | 0.00 | 0.00 | 38 | 1012.3 |
| 20260503200814 | 56 | 19 | 3.5 | 9.6 | 0.00 | 0.00 | 0.00 | 38 | 1012.3 |
| 20260503200310 | 56 | 247 | 0.9 | 8.7 | 0.00 | 0.00 | 0.00 | 40 | 1012.6 |
| 20260503195807 | 57 | 232 | 4.3 | 6.1 | 0.00 | 0.00 | 0.00 | 37 | 1012.6 |
| 20260503195304 | 56 | 295 | 4.3 | 8.7 | 0.00 | 0.00 | 0.00 | 38 | 1012.5 |
| 20260503194801 | 56 | 235 | 7.8 | 9.6 | 0.00 | 0.00 | 0.00 | 38 | 1012.5 |
| 20260503194256 | 55 | 273 | 6.1 | 7.8 | 0.00 | 0.00 | 0.00 | 38 | 1012.6 |
| 20260503193753 | 56 | 288 | 6.1 | 9.6 | 0.00 | 0.00 | 0.00 | 38 | 1012.6 |
| 20260503193249 | 56 | 282 | 4.3 | 7.0 | 0.00 | 0.00 | 0.00 | 38 | 1012.6 |
| 20260503192739 | 57 | 290 | 6.1 | 7.8 | 0.00 | 0.00 | 0.00 | 38 | 1012.8 |
| 20260503192234 | 58 | 289 | 7.0 | 7.8 | 0.00 | 0.00 | 0.00 | 36 | 1012.8 |
| 20260503191732 | 56 | 280 | 4.3 | 9.6 | 0.00 | 0.00 | 0.00 | 37 | 1013.0 |
| 20260503191229 | 56 | 232 | 7.0 | 8.7 | 0.00 | 0.00 | 0.00 | 40 | 1012.8 |
| 20260503190726 | 56 | 101 | 3.5 | 8.7 | 0.00 | 0.00 | 0.00 | 39 | 1013.1 |
| 20260503190222 | 56 | 171 | 1.7 | 7.8 | 0.00 | 0.00 | 0.00 | 41 | 1013.1 |
| 20260503185720 | 56 | 244 | 7.8 | 11.3 | 0.00 | 0.00 | 0.00 | 38 | 1013.2 |
| 20260503185215 | 57 | 237 | 5.2 | 7.0 | 0.00 | 0.00 | 0.00 | 39 | 1013.1 |
| 20260503184710 | 57 | 263 | 3.5 | 7.0 | 0.00 | 0.00 | 0.00 | 39 | 1013.2 |
| 20260503184206 | 55 | 240 | 4.3 | 5.2 | 0.00 | 0.00 | 0.00 | 39 | 1013.3 |
| 20260503183703 | 56 | 304 | 5.2 | 6.1 | 0.00 | 0.00 | 0.00 | 39 | 1013.3 |
| 20260503183200 | 55 | 256 | 3.5 | 7.0 | 0.00 | 0.00 | 0.00 | 41 | 1013.3 |
| 20260503182658 | 55 | 272 | 5.2 | 7.0 | 0.00 | 0.00 | 0.00 | 40 | 1013.3 |
| 20260503182156 | 55 | 239 | 2.6 | 7.0 | 0.00 | 0.00 | 0.00 | 46 | 1013.5 |
| 20260503181652 | 57 | 131 | 0.9 | 7.0 | 0.00 | 0.00 | 0.00 | 46 | 1013.4 |
| 20260503181149 | 54 | 238 | 1.7 | 12.2 | 0.00 | 0.00 | 0.00 | 40 | 1013.5 |
| 20260503180646 | 56 | 229 | 7.0 | 8.7 | 0.00 | 0.00 | 0.00 | 41 | 1013.4 |
| 20260503180145 | 54 | 290 | 0.9 | 7.8 | 0.00 | 0.00 | 0.00 | 45 | 1013.3 |
| 20260503175641 | 53 | 251 | 6.1 | 7.8 | 0.00 | 0.00 | 0.00 | 41 | 1013.4 |
| 20260503175138 | 53 | 288 | 1.7 | 7.0 | 0.00 | 0.00 | 0.00 | 45 | 1013.6 |
| 20260503174635 | 54 | 210 | 4.3 | 13.0 | 0.00 | 0.00 | 0.00 | 41 | 1013.6 |
| 20260503174132 | 55 | 302 | 4.3 | 7.0 | 0.00 | 0.00 | 0.00 | 43 | 1013.6 |
| 20260503173627 | 52 | 307 | 7.8 | 11.3 | 0.00 | 0.00 | 0.00 | 41 | 1013.7 |
| 20260503173124 | 53 | 232 | 5.2 | 12.2 | 0.00 | 0.00 | 0.00 | 40 | 1013.6 |
| 20260503172621 | 53 | 200 | 4.3 | 7.0 | 0.00 | 0.00 | 0.00 | 41 | 1013.8 |
| 20260503172118 | 55 | 159 | 2.6 | 7.8 | 0.00 | 0.00 | 0.00 | 45 | 1013.8 |
| 20260503171615 | 54 | 251 | 2.6 | 6.1 | 0.00 | 0.00 | 0.00 | 43 | 1013.5 |
| 20260503171112 | 52 | 273 | 6.1 | 7.8 | 0.00 | 0.00 | 0.00 | 44 | 1013.6 |
| 20260503170609 | 52 | 213 | 2.6 | 7.0 | 0.00 | 0.00 | 0.00 | 44 | 1013.9 |
| 20260503170105 | 52 | 230 | 3.5 | 8.7 | 0.00 | 0.00 | 0.00 | 43 | 1013.8 |
| 20260503151000 | 49 | 246 | 5.2 | 7.0 | 0.00 | 0.00 | 0.00 | 46 | 1014.9 |
| 20260503150457 | 47 | 299 | 3.5 | 9.6 | 0.00 | 0.00 | 0.00 | 50 | 1015.0 |
| 20260503131350 | 43 | 272 | 3.5 | 7.8 | 0.00 | 0.00 | 0.00 | 61 | 1015.4 |
| 20260503130847 | 43 | 245 | 5.2 | 7.8 | 0.00 | 0.00 | 0.00 | 60 | 1015.4 |
| 20260503130345 | 43 | 240 | 2.6 | 5.2 | 0.00 | 0.00 | 0.00 | 61 | 1015.5 |
| 20260503110744 | 35 | 136 | 0.9 | 1.7 | 0.00 | 0.00 | 0.00 | 74 | 1014.9 |
| 20260503110241 | 35 | 166 | 0.0 | 0.9 | 0.00 | 0.00 | 0.00 | 74 | 1014.8 |
| 20260503100207 | 34 | 274 | 1.7 | 2.6 | 0.00 | 0.00 | 0.00 | 75 | 1014.0 |
| 20260503090131 | 36 | 279 | 3.5 | 5.2 | 0.00 | 0.00 | 0.00 | 71 | 1013.9 |
| 20260503081602 | 36 | 133 | 0.0 | 0.9 | 0.00 | 0.00 | 0.00 | 73 | 1013.7 |
| 20260503081100 | 36 | 203 | 1.7 | 1.7 | 0.00 | 0.00 | 0.00 | 72 | 1013.7 |
| 20260503080555 | 36 | 209 | 1.7 | 2.6 | 0.00 | 0.00 | 0.00 | 72 | 1013.5 |
| 20260503072529 | 36 | 141 | 0.9 | 0.9 | 0.00 | 0.00 | 0.00 | 71 | 1013.5 |
| 20260503072026 | 36 | 294 | 3.5 | 5.2 | 0.00 | 0.00 | 0.00 | 70 | 1013.5 |
| 20260503071523 | 37 | 151 | 0.9 | 1.7 | 0.00 | 0.00 | 0.00 | 70 | 1013.4 |
| 20260503071020 | 37 | 274 | 2.6 | 2.6 | 0.00 | 0.00 | 0.00 | 69 | 1013.5 |
| 20260503070516 | 37 | 130 | 0.9 | 1.7 | 0.00 | 0.00 | 0.00 | 68 | 1013.3 |
| 20260503054934 | 37 | 197 | 0.9 | 2.6 | 0.00 | 0.00 | 0.00 | 68 | 1013.6 |
| 20260503054430 | 37 | 300 | 1.7 | 2.6 | 0.00 | 0.00 | 0.00 | 69 | 1013.6 |
| 20260503053928 | 37 | 151 | 0.0 | 0.9 | 0.00 | 0.00 | 0.00 | 69 | 1013.5 |
| 20260503053426 | 38 | 119 | 0.0 | 0.0 | 0.00 | 0.00 | 0.00 | 69 | 1013.4 |
| 20260503052922 | 38 | 127 | 0.0 | 0.9 | 0.00 | 0.00 | 0.00 | 67 | 1013.7 |
| 20260503052420 | 38 | 115 | 0.0 | 0.9 | 0.00 | 0.00 | 0.00 | 68 | 1013.8 |
| 20260503051916 | 39 | 122 | 0.0 | 0.9 | 0.00 | 0.00 | 0.00 | 68 | 1013.7 |
| 20260503051412 | 39 | 151 | 1.7 | 1.7 | 0.00 | 0.00 | 0.00 | 66 | 1013.7 |
| 20260503050909 | 39 | 164 | 0.9 | 1.7 | 0.00 | 0.00 | 0.00 | 66 | 1013.7 |
| 20260503050405 | 39 | 124 | 0.0 | 0.9 | 0.00 | 0.00 | 0.00 | 68 | 1013.5 |
| 20260503045903 | 39 | 123 | 0.0 | 0.9 | 0.00 | 0.00 | 0.00 | 66 | 1013.6 |
| 20260503045400 | 39 | 138 | 0.9 | 0.9 | 0.00 | 0.00 | 0.00 | 67 | 1013.6 |
| 20260503044856 | 39 | 129 | 0.0 | 0.9 | 0.00 | 0.00 | 0.00 | 68 | 1013.7 |
| 20260503044354 | 39 | 132 | 0.0 | 0.9 | 0.00 | 0.00 | 0.00 | 67 | 1013.8 |
| 20260503043851 | 39 | 123 | 0.0 | 0.0 | 0.00 | 0.00 | 0.00 | 68 | 1013.7 |
| 20260503043348 | 39 | 116 | 0.0 | 0.0 | 0.00 | 0.00 | 0.00 | 67 | 1013.8 |
| 20260503042844 | 39 | 119 | 0.0 | 0.0 | 0.00 | 0.00 | 0.00 | 66 | 1013.7 |
| 20260503042340 | 39 | 143 | 0.9 | 2.6 | 0.00 | 0.00 | 0.00 | 64 | 1013.8 |
| 20260503041836 | 39 | 138 | 0.9 | 1.7 | 0.00 | 0.00 | 0.00 | 66 | 1013.7 |
| 20260503041334 | 39 | 125 | 0.0 | 0.9 | 0.00 | 0.00 | 0.00 | 67 | 1013.8 |
| 20260503040832 | 40 | 118 | 0.0 | 0.0 | 0.00 | 0.00 | 0.00 | 64 | 1013.8 |
| 20260503040329 | 40 | 243 | 1.7 | 2.6 | 0.00 | 0.00 | 0.00 | 63 | 1013.7 |
| 20260503035826 | 40 | 163 | 1.7 | 1.7 | 0.00 | 0.05 | 0.05 | 64 | 1013.7 |
| 20260503035323 | 40 | 115 | 0.0 | 0.9 | 0.00 | 0.05 | 0.05 | 65 | 1013.8 |
| 20260503034820 | 40 | 126 | 0.0 | 0.0 | 0.00 | 0.05 | 0.05 | 66 | 1014.1 |
| 20260503034317 | 40 | 120 | 0.0 | 0.9 | 0.00 | 0.05 | 0.05 | 65 | 1014.0 |
| 20260503033814 | 40 | 144 | 0.9 | 0.9 | 0.00 | 0.05 | 0.05 | 66 | 1013.9 |
| 20260503033312 | 40 | 130 | 0.0 | 0.9 | 0.00 | 0.05 | 0.05 | 66 | 1013.9 |
| 20260503032810 | 40 | 119 | 0.0 | 0.9 | 0.00 | 0.05 | 0.05 | 66 | 1014.1 |
| 20260503032309 | 40 | 121 | 0.0 | 0.9 | 0.00 | 0.05 | 0.05 | 67 | 1014.0 |
| 20260503031805 | 41 | 157 | 0.0 | 0.9 | 0.00 | 0.05 | 0.05 | 67 | 1014.1 |
| 20260503031303 | 41 | 273 | 3.5 | 3.5 | 0.00 | 0.05 | 0.05 | 65 | 1014.0 |
| 20260503030759 | 41 | 125 | 0.0 | 1.7 | 0.00 | 0.05 | 0.05 | 65 | 1014.2 |
| 20260503030256 | 41 | 170 | 0.9 | 0.9 | 0.00 | 0.05 | 0.05 | 67 | 1014.1 |
| 20260503025752 | 41 | 137 | 0.9 | 0.9 | 0.00 | 0.05 | 0.05 | 66 | 1014.0 |
| 20260503025250 | 41 | 226 | 0.9 | 3.5 | 0.00 | 0.05 | 0.05 | 68 | 1014.0 |
| 20260503024747 | 41 | 125 | 0.9 | 2.6 | 0.00 | 0.05 | 0.05 | 67 | 1014.1 |
| 20260503024244 | 41 | 121 | 0.0 | 1.7 | 0.00 | 0.05 | 0.05 | 66 | 1014.2 |
| 20260503023740 | 41 | 288 | 2.6 | 2.6 | 0.00 | 0.05 | 0.05 | 66 | 1014.1 |
| 20260503023238 | 41 | 146 | 0.9 | 0.9 | 0.00 | 0.05 | 0.05 | 68 | 1014.2 |
| 20260503022734 | 41 | 141 | 0.0 | 0.0 | 0.00 | 0.05 | 0.05 | 67 | 1014.3 |
| 20260503022234 | 41 | 127 | 0.0 | 0.9 | 0.00 | 0.05 | 0.05 | 68 | 1014.2 |
| 20260503021731 | 41 | 236 | 1.7 | 5.2 | 0.00 | 0.05 | 0.05 | 68 | 1014.1 |
| 20260503021226 | 41 | 116 | 0.9 | 1.7 | 0.00 | 0.05 | 0.05 | 69 | 1014.2 |
| 20260503020725 | 41 | 266 | 2.6 | 5.2 | 0.00 | 0.05 | 0.05 | 68 | 1014.0 |
| 20260503020222 | 41 | 220 | 2.6 | 3.5 | 0.00 | 0.05 | 0.05 | 69 | 1014.0 |
| 20260503015718 | 41 | 261 | 1.7 | 2.6 | 0.00 | 0.05 | 0.05 | 68 | 1014.0 |
| 20260503015215 | 41 | 248 | 1.7 | 2.6 | 0.00 | 0.05 | 0.05 | 69 | 1014.0 |
| 20260503014711 | 41 | 161 | 0.9 | 2.6 | 0.00 | 0.05 | 0.05 | 73 | 1013.8 |
| 20260503014209 | 41 | 250 | 2.6 | 3.5 | 0.00 | 0.05 | 0.05 | 73 | 1013.9 |
| 20260503013706 | 41 | 135 | 0.0 | 2.6 | 0.00 | 0.05 | 0.05 | 74 | 1013.8 |
| 20260503013204 | 41 | 141 | 0.9 | 2.6 | 0.00 | 0.05 | 0.05 | 74 | 1013.9 |
| 20260503012701 | 41 | 142 | 1.7 | 2.6 | 0.00 | 0.05 | 0.05 | 74 | 1013.8 |
| 20260503012158 | 41 | 186 | 1.7 | 1.7 | 0.00 | 0.05 | 0.05 | 74 | 1013.9 |
| 20260503011654 | 41 | 156 | 0.9 | 0.9 | 0.00 | 0.05 | 0.05 | 73 | 1013.9 |
| 20260503011151 | 41 | 174 | 1.7 | 1.7 | 0.00 | 0.05 | 0.05 | 72 | 1013.7 |
| 20260503010647 | 41 | 128 | 1.7 | 3.5 | 0.00 | 0.05 | 0.05 | 72 | 1013.6 |
| 20260503010145 | 41 | 141 | 0.9 | 1.7 | 0.00 | 0.05 | 0.05 | 74 | 1013.5 |
| 20260503005642 | 41 | 242 | 1.7 | 1.7 | 0.00 | 0.05 | 0.05 | 75 | 1013.6 |
| 20260503005139 | 41 | 166 | 1.7 | 2.6 | 0.00 | 0.05 | 0.05 | 75 | 1013.5 |
| 20260503004635 | 42 | 150 | 0.0 | 0.9 | 0.00 | 0.05 | 0.05 | 76 | 1013.4 |
| 20260503004134 | 42 | 155 | 0.9 | 3.5 | 0.00 | 0.05 | 0.05 | 75 | 1013.4 |
| 20260503003630 | 42 | 228 | 1.7 | 2.6 | 0.00 | 0.05 | 0.05 | 75 | 1013.4 |
| 20260503003127 | 42 | 193 | 0.9 | 0.9 | 0.00 | 0.05 | 0.05 | 75 | 1013.2 |
| 20260503002624 | 42 | 156 | 1.7 | 2.6 | 0.00 | 0.05 | 0.05 | 75 | 1013.2 |
| 20260503002121 | 42 | 74 | 0.9 | 2.6 | 0.00 | 0.05 | 0.05 | 74 | 1013.2 |
| 20260503001617 | 42 | 172 | 0.9 | 1.7 | 0.00 | 0.05 | 0.05 | 74 | 1013.5 |
| 20260503001114 | 42 | 157 | 0.9 | 1.7 | 0.00 | 0.05 | 0.05 | 73 | 1013.3 |
| 20260503000612 | 42 | 159 | 0.9 | 1.7 | 0.00 | 0.05 | 0.05 | 73 | 1013.4 |
| 20260503000109 | 42 | 226 | 1.7 | 3.5 | 0.00 | 0.05 | 0.05 | 73 | 1013.4 |
| 20260502235605 | 42 | 177 | 0.9 | 1.7 | 0.00 | 0.05 | 0.05 | 73 | 1013.3 |
| 20260502235103 | 42 | 249 | 1.7 | 2.6 | 0.00 | 0.05 | 0.05 | 72 | 1013.4 |
| 20260502234559 | 42 | 135 | 0.9 | 1.7 | 0.00 | 0.05 | 0.05 | 73 | 1013.3 |
| 20260502234057 | 43 | 139 | 0.9 | 2.6 | 0.00 | 0.05 | 0.05 | 72 | 1013.2 |
| 20260502233557 | 43 | 156 | 0.9 | 1.7 | 0.00 | 0.05 | 0.05 | 72 | 1013.1 |
| 20260502233055 | 43 | 238 | 2.6 | 3.5 | 0.00 | 0.05 | 0.05 | 71 | 1013.2 |
| 20260502232550 | 43 | 132 | 0.9 | 2.6 | 0.00 | 0.05 | 0.05 | 71 | 1013.3 |
| 20260502232048 | 43 | 102 | 0.9 | 1.7 | 0.00 | 0.05 | 0.05 | 71 | 1013.0 |
| 20260502231545 | 43 | 169 | 1.7 | 1.7 | 0.00 | 0.05 | 0.05 | 72 | 1013.2 |
| 20260502231043 | 43 | 123 | 0.9 | 1.7 | 0.00 | 0.05 | 0.05 | 73 | 1013.0 |
| 20260502230541 | 43 | 117 | 0.0 | 1.7 | 0.00 | 0.05 | 0.05 | 73 | 1013.0 |
| 20260502230039 | 43 | 87 | 0.9 | 5.2 | 0.00 | 0.05 | 0.05 | 72 | 1013.0 |
| 20260502225534 | 44 | 237 | 0.9 | 3.5 | 0.00 | 0.05 | 0.05 | 71 | 1013.0 |
| 20260502225032 | 44 | 230 | 1.7 | 2.6 | 0.00 | 0.05 | 0.05 | 71 | 1013.1 |
| 20260502224528 | 44 | 192 | 0.9 | 2.6 | 0.00 | 0.05 | 0.05 | 72 | 1013.0 |
| 20260502224025 | 44 | 133 | 0.9 | 1.7 | 0.00 | 0.05 | 0.05 | 71 | 1013.1 |
| 20260502223523 | 44 | 116 | 0.0 | 0.9 | 0.00 | 0.05 | 0.05 | 71 | 1012.9 |
| 20260502223021 | 44 | 136 | 0.9 | 0.9 | 0.00 | 0.05 | 0.05 | 70 | 1012.9 |
| 20260502222518 | 44 | 142 | 0.9 | 1.7 | 0.00 | 0.05 | 0.05 | 70 | 1012.9 |
| 20260502222014 | 44 | 207 | 1.7 | 2.6 | 0.00 | 0.05 | 0.05 | 69 | 1012.8 |
| 20260502221509 | 44 | 146 | 0.9 | 2.6 | 0.00 | 0.05 | 0.05 | 70 | 1013.1 |
| 20260502221007 | 44 | 134 | 0.9 | 0.9 | 0.00 | 0.05 | 0.05 | 71 | 1012.9 |
| 20260502220502 | 45 | 109 | 0.0 | 0.9 | 0.00 | 0.05 | 0.05 | 70 | 1012.9 |
| 20260502215959 | 45 | 117 | 0.0 | 0.9 | 0.00 | 0.05 | 0.05 | 72 | 1013.0 |
| 20260502215457 | 44 | 264 | 1.7 | 2.6 | 0.00 | 0.05 | 0.05 | 71 | 1013.1 |
| 20260502214953 | 44 | 90 | 0.9 | 2.6 | 0.00 | 0.05 | 0.05 | 73 | 1012.8 |
| 20260502214450 | 44 | 170 | 0.9 | 2.6 | 0.00 | 0.05 | 0.05 | 72 | 1013.0 |
| 20260502213948 | 44 | 106 | 0.0 | 3.5 | 0.00 | 0.05 | 0.05 | 72 | 1012.8 |